Regional Weather Roundup
Issued by NWS Wakefield, VA

Home | Current Version | Previous Version | Graphics & Text | Print | Product List | Glossary On
Versions: 1 2 3 4 5 6 7 8 9 10 11 12 13 14 15 16 17 18 19 20 21 22 23 24 25 26 27
000
ASUS41 KAKQ 092115
RWRAKQ

REGIONAL WEATHER ROUNDUP
NATIONAL WEATHER SERVICE WAKEFIELD VA
400 PM EST FRI DEC 09 2016

Note: "fair" indicates few or no clouds below 12,000 feet with no
significant weather and/or obstructions to visibility. * = Denotes
station may not report precipitation (e.g., rain,snow,etc.),
thunder or fog.

VAZ042-051-052>054-056-092200-
NORTHERN VIRGINIA

CITY           SKY/WX    TMP DP  RH WIND       PRES   REMARKS
WASH NATIONAL  PTCLDY    38  16  40 W15G28    30.36R
DULLES         PTCLDY    35  15  44 NW17G25   30.35R WCI  25
FORT BELVOIR   CLEAR     37  14  39 W15       30.35R
QUANTICO       CLEAR     39  16  39 N12G26    30.38R
FREDERICKSBRG* CLEAR     40  15  35 NW13G18   30.36R
STAFFORD*      PTCLDY    37  14  38 NW13      30.40R
WARRENTON      CLEAR     38   8  28 W13       30.36R
CULPEPER*      CLEAR     37  14  38 NW13G20   30.38R
MANASSAS*      PTCLDY   N/A N/A N/A NW12G21   30.38R
LEESBURG*      CLOUDY    36  21  55 W16       30.36R
WINCHESTER     CLOUDY    30  16  55 W17G25    30.36R WCI  18
FRONT ROYAL*   MOCLDY    32  16  51 W12       30.36R WCI  23
LURAY*         FAIR      34  18  51 W5G16     30.36R
$$

VAZ048-049-060>072-079>083-092200-
CENTRAL AND SOUTH CENTRAL VIRGINIA

CITY           SKY/WX    TMP DP  RH WIND       PRES   REMARKS
RICHMOND       PTCLDY    40  13  33 NW10      30.36R
CHESTERFIELD*  FAIR      39   7  26 NW10      30.38R
PETERSBURG*    PTCLDY    38  11  32 W7        30.38S
HANOVER        PTCLDY    38  13  35 NW8       30.38R
TAPPAHANNOCK*  CLEAR     40   5  23 NW13G23   30.36R
QUINTON*       FAIR      38  13  36 W8        30.36R
CHARLOTTSVILLE PTCLDY    39  11  31 MISG      30.37R
GORDONSVILLE*  FAIR      38  12  34 CALM      30.36R
ORANGE*          N/A     37  10  32 W12       30.38R
LOUISA*        CLOUDY    43  16  33 N6        30.35R
BUMPASS*       MOCLDY    38  11  33 NW7       30.36R
FARMVILLE*     MOCLDY    40  14  34 CALM      30.37R
CREWE*         FAIR      37  13  36 W5        30.38R
FORT PICKETT*  FAIR      38   4  24 NW9       30.38R
CHASE CITY*    FAIR      37  11  34 W6        30.39R
CLARKSVILLE*   FAIR      37  14  38 W5        30.39R
SOUTH HILL*    CLEAR     37  14  39 NW3       30.44R
LAWRENCEVILLE* FAIR      38  10  32 NW8       30.38R
EMPORIA*       CLEAR     37  14  38 W7        30.40R
$$

VAZ088>098-092200-
SOUTHEAST VIRGINIA

CITY           SKY/WX    TMP DP  RH WIND       PRES   REMARKS
NORFOLK        CLEAR     41  16  36 VRB6      30.34R
VIRGINIA BEACH CLEAR     39  15  37 NW16      30.34R
NORFOLK NAVAL  PTCLDY    41  15  35 NW12G21   30.36R
WEST POINT*    CLEAR     40  10  28 NW9G17    30.37R
SALUDA*        FAIR      39  17  40 NW9G23    30.34R
NEWPORT NEWS   CLEAR     40  14  34 NW10      30.35R
LANGLEY AFB    CLEAR     40  15  36 NW12      30.34R
FORT EUSTIS    CLEAR     42  15  33 NW13      30.33R
WILLIAMSBURG*  CLEAR     43  18  36 NW8G17    30.36R
HR EXEC AP*    FAIR      39  16  38 NW9       30.34S
FRANKLIN*      CLEAR     39  14  35 NW7       30.38R
US460-WAKEFLD  CLEAR     40  14  34 NW5       30.37R
$$

VAZ020-022-025-037-045-092200-
WEST CENTRAL AND SOUTHWEST VIRGINIA

CITY           SKY/WX    TMP DP  RH WIND       PRES   REMARKS
STAUNTON*      CLEAR     32  12  43 W9        30.39R
WAYNESBORO*    FAIR      31   8  38 NW12G17   30.35R WCI  22
HOT SPRINGS VA CLOUDY    19   9  63 W13       30.22R WCI   7
LYNCHBURG      CLEAR     35  12  38 NW3       30.39R
DANVILLE       CLEAR     37  14  38 N10       30.40R
SOUTH BOSTON*  FAIR      37  10  32 NW10      30.40S
MARTINSVILLE   CLEAR     35  10  35 N8        30.42R
ROANOKE        PTCLDY    32  12  43 N15       30.42R WCI  22
BLACKSBURG     CLEAR     28  12  50 W7        30.39R
DUBLIN*        SUNNY     28  12  51 NW9       30.38R
MARION*        MOSUNNY   25  11  55 W15       30.38R WCI  13
HILLSVILLE*    SUNNY     26  12  57 W10G16    30.31R WCI  15
RICHLANDS*     MOCLDY    22  13  67 NW6       30.37R
WISE*          SUNNY     25  14  63 N6        30.39S
ABINGDON*      SUNNY     30  13  49 N5        30.41R
$$

MDZ021>025-VAZ099-100-092200-
SOUTHERN MARYLAND AND THE DELMARVA PENINSULA

CITY           SKY/WX    TMP DP  RH WIND       PRES   REMARKS
PATUXENT RIVER PTCLDY    38  17  42 NW20      30.32R
BAY BRIDGE APT MOCLDY    37  18  44 W20G25    30.31R
LEONARDTOWN    CLEAR     37  14  38 W14G22    30.34R
DOVER          PTCLDY    37  19  47 W18       30.26R
GEORGETOWN     PTCLDY    39  17  41 NW9G18    30.28R
EASTON         NOT AVBL
CAMBRIDGE      PTCLDY    37  18  44 W15G22    30.30R
SALISBURY      PTCLDY    38  17  42 NW14      30.29R
OCEAN CITY     PTCLDY    38  18  44 NW10G20   30.29R
WALLOPS ISLAND CLEAR     38  19  46 NW13      30.31R
ACCOMACK*      MOCLDY    40  21  46 NW21      30.31R
$$

NCZ012>017-030>032-092200-
NORTH CENTRAL AND EASTERN NORTH CAROLINA

CITY           SKY/WX    TMP DP  RH WIND       PRES   REMARKS
ROANOKE RAPIDS FAIR      39  18  41 NW9       30.38R
RALEIGH        PTCLDY    40  11  30 NW8       30.40R
ELIZABETH CITY CLEAR     40  16  37 NW10G18   30.36R
AHOSKIE*       CLEAR     38  14  37 N3        30.38R
EDENTON*       CLEAR     42  18  37 NW12      30.36R
CURRITUCK*     CLEAR     41  17  38 NW9       30.36R
KILL DEVIL HLS PTCLDY    40  23  50 N7        30.32S
MANTEO         PTCLDY    40  20  44 NW8       30.34S
CAPE HATTERAS  CLEAR     42  22  44 NW8G17    30.33R
TARBORO*       NOT AVBL
GOLDSBORO      CLEAR     41  15  34 NW10      30.37R
WASHINGTON     CLEAR     41  17  37 N6        30.37R
GREENVILLE     CLEAR     41  18  38 N9        30.38R
NEW BERN       CLEAR     41  20  43 N7        30.38R
WILMINGTON     SUNNY     44  20  38 NW12      30.37R
$$

VAZ048-092200-
ELSEWHERE

CITY           SKY/WX    TMP DP  RH WIND       PRES   REMARKS
HARRISBURG PA  PTCLDY    34  19  54 W18       30.27R WCI  23
BALTIMORE      PTCLDY    36  16  44 NW16G25   30.31R
ANNAPOLIS      PTCLDY    40  18  41 NW13G26   30.32R
ANDREWS AFB    CLEAR     36  14  41 NW18G28   30.32R
PHILADELPHIA   CLOUDY    38  15  39 W17G30    30.25R
GREENSBORO     SUNNY     39  13  34 NW9       30.37R
ROCKY MOUNT    CLEAR     40  17  39 NW13      30.39R
$$

VAZ100-092200-
MARINE

STATION/POSITION TIME  TEMP    WIND        PRES    WAVE   SWELL
                       AIR SEA DIR/SP/G            HT/PER HT/PER
                 (UTC) (F)     (DEG/KT/KT) (MB)    (FT/S) (FT/S)
BRANDYWINE LGT   2048   38     330/ 14/ 26   N/A
CAPE MAY NJ      2048   38 43  310/ 20/ 27 1024.0R
LEWES DE         2048   38 45  300/ 20/ 24 1024.7R
OCEAN-CITY-INLET 2042   39 49  320/ 15/ 19 1025.6R
WACHAPREAGUE VA  2048   39 45  270/  2/  8 1026.5R
THOMAS POINT MD  2100   38 45  300/ 19/ 20   N/A
GOOSES REEF MD   2050   40     300/ 17/ 23 1027.6R
COVE POINT MD    2048   38     330/ 18/ 24 1027.3R
SOLOMONS ISLAND  2042   39 48  310/ 14/ 19   N/A
BISHOPS HEAD MD  2048   39 39  310/ 18/ 21 1027.0R
PINEY POINT MD   2048          330/ 25/ 28   N/A
POTOMAC MD       2050   40     320/ 19/ 27 1026.5R
CAMBRIDGE MD     2048   39 44  310/ 19/ 24 1025.5R
LEWISETTA VA     2048   39 46  320/ 17/ 24 1027.2R
RAPPAHANNOCK LGT 2048          320/ 18/ 21 1027.4R
STINGRAY PT      2050   41     310/ 19/ 23 1027.6R
YORK RVR RNG VA  2048   40     310/ 15/ 19 1027.0R
YORKTOWN VA      2048   41 49  320/ 16/ 21 1027.3R
JAMESTOWN VA     2050   40     300/ 16/ 21   N/A
DOMINION TERM VA 2048   41     320/ 17/ 21 1027.4R
KIPTOPEKE VA     2042      49  330/ 20/ 27   N/A
CHES BAY BRIDGE  2048   40 50  320/ 17/ 20 1027.4R
CAPE HENRY VA    2048   40     310/ 15/ 21   N/A
WILLOUBY STN VA  2048   40     320/ 12/ 14 1028.4R
S CRANEY ISL VA  2048   40     310/ 12/ 16 1027.4R
CAPE HENRY BUOY  2042      53                N/A     4/ 4
1ST LANDING BUOY 2050   41                 1027.6R
CAPE CHARLES BUO 2056      53                N/A     3/ 3
OFFSHORE WE BUOY 2051      55                N/A     5/ 6
64NM E OF VA BCH 2050   42 59  320/ 19/ 25 1025.6R   6/ 5   2/14
DUCK PIER NC     2048   40 53  330/ 15/ 18 1026.6R
44100 DUCK FRF   2035      55                N/A     5/ 7   2/14
OREGON INLET NC  2036   40 52  310/ 10/ 16 1027.1R
HATTERAS NC      2036   41 54  330/ 14/ 18 1026.7R
DIAMOND SHLS NC  2050   42 76  350/ 17/ 23 1026.7R   5/ 9   3/ 9
CAPE LOOKOUT NC  2000   43     340/ 12/ 14 1026.7R
$$




USA.gov is the U.S. government's official web portal to all federal, state and local government web resources and services.